Weather History for Houston Hull, TX

Change the Weather History Date:

Thursday, July 4, 2013

  Actual Average Record
Temperature  
Mean Temperature 82 °F -  
Max Temperature 95 °F 93 °F 100 °F (1952)
Min Temperature 70 °F 74 °F 68 °F (1985)
Cooling Degree Days 16    
Growing Degree Days 32 (Base 50)    
Moisture  
Dew Point 67 °F    
Average Humidity 66    
Maximum Humidity 90    
Minimum Humidity 36    
Precipitation  
Precipitation 0.00 in - - ()
Sea Level Pressure  
Sea Level Pressure 29.95 in    
Wind  
Wind Speed 2 mph (SE)    
Max Wind Speed 15 mph    
Max Gust Speed -    
Visibility 10 miles    
Events      
Averages and records for this station are not official NWS values.
T = Trace of Precipitation, MM = Missing Value Source: NWS Daily Summary

Daily Weather History Graph

Daily Weather History Graph

Search for Another Location

Airport:

Trip Planner

Search our weather history database for the weather conditions in past years. The results will help you decide how hot, cold, wet, or windy it might be!

Date:

Astronomy

Jul. 04, 2013 Rise Set
Actual Time 6:27 AM CDT 8:26 PM CDT
Civil Twilight 6:00 AM CDT 8:53 PM CDT
Nautical Twilight 5:27 AM CDT 9:26 PM CDT
Astronomical Twilight 4:52 AM CDT 10:01 PM CDT
Moon 3:39 AM CDT (7/4) 5:36 PM CDT (7/4)
Length of Visible Light 14h 53m
Length of Day
13h 59m
Waning Crescent, 11% of the Moon is Illuminated
Jul 4
Waning Crescent
Jul 8
New
Jul 15
First Quarter
Jul 22
Full
Jul 29
Last Quarter

Hourly Weather History & Observations

Time (CDT) Temp. Heat Index Dew Point Humidity Pressure Visibility Wind Dir Wind Speed Gust Speed Precip Events Conditions
12:53 AM 71.1 °F - 68.0 °F 90% 29.97 in 10.0 mi Calm Calm - N/A   Clear
1:53 AM 70.0 °F - 66.9 °F 90% 29.96 in 10.0 mi Calm Calm - N/A   Clear
2:53 AM 70.0 °F - 66.9 °F 90% 29.97 in 10.0 mi Calm Calm - N/A   Clear
3:53 AM 72.0 °F - 66.9 °F 84% 29.96 in 10.0 mi Calm Calm - N/A   Clear
4:53 AM 71.1 °F - 66.9 °F 87% 29.96 in 10.0 mi Calm Calm - N/A   Clear
5:53 AM 70.0 °F - 66.9 °F 90% 29.96 in 10.0 mi Calm Calm - N/A   Clear
6:53 AM 70.0 °F - 66.9 °F 90% 29.97 in 7.0 mi Calm Calm - N/A   Clear
7:53 AM 75.0 °F - 71.1 °F 87% 29.98 in 10.0 mi Calm Calm - N/A   Clear
8:53 AM 82.0 °F 85.5 °F 69.1 °F 65% 29.99 in 10.0 mi Calm Calm - N/A   Clear
9:53 AM 84.0 °F 87.0 °F 68.0 °F 58% 29.99 in 10.0 mi Calm Calm - N/A   Clear
10:53 AM 86.0 °F 89.4 °F 68.0 °F 55% 30.00 in 10.0 mi Variable 3.5 mph - N/A   Clear
11:53 AM 87.1 °F 89.2 °F 66.0 °F 49% 29.99 in 10.0 mi Variable 3.5 mph - N/A   Clear
12:53 PM 90.0 °F 92.4 °F 66.0 °F 45% 29.97 in 10.0 mi Calm Calm - N/A   Clear
1:53 PM 91.0 °F 92.6 °F 64.0 °F 41% 29.95 in 10.0 mi Calm Calm - N/A   Clear
2:53 PM 93.0 °F 94.6 °F 64.0 °F 38% 29.93 in 10.0 mi East 5.8 mph - N/A   Clear
3:53 PM 93.9 °F 95.2 °F 63.0 °F 36% 29.91 in 10.0 mi Variable 6.9 mph - N/A   Scattered Clouds
4:53 PM 90.0 °F 93.6 °F 68.0 °F 48% 29.91 in 10.0 mi SSE 15.0 mph - N/A   Mostly Cloudy
5:53 PM 90.0 °F 92.8 °F 66.9 °F 46% 29.91 in 10.0 mi SE 11.5 mph - N/A   Mostly Cloudy
6:53 PM 87.1 °F 91.3 °F 69.1 °F 55% 29.91 in 10.0 mi SSE 11.5 mph - N/A   Partly Cloudy
7:53 PM 86.0 °F 90.1 °F 69.1 °F 57% 29.91 in 10.0 mi SSE 9.2 mph - N/A   Partly Cloudy
8:53 PM 84.9 °F 87.6 °F 66.9 °F 55% 29.94 in 10.0 mi ESE 4.6 mph - N/A   Mostly Cloudy
9:53 PM 80.1 °F 82.9 °F 69.1 °F 69% 29.95 in 10.0 mi Calm Calm - N/A   Overcast
10:53 PM 80.1 °F 82.9 °F 69.1 °F 69% 29.96 in 10.0 mi South 4.6 mph - N/A   Mostly Cloudy
11:53 PM 75.9 °F - 71.1 °F 85% 29.96 in 10.0 mi South 3.5 mph - N/A   Clear